[[{"header":{"parameterUnit":"m.s-1","parameterCategory":1,"la1":30.2991,"la2":30.254,"lo1":-89.0895,"lo2":-89.0444,"dy":0.0017,"dx":0.0017,"nx":28,"ny":28,"refTime":"2024-02-29T09:00:00:Z","depth":0,"parameterNumber":2,"parameterNumberName":"U-component_of_WINDS"},"data":[0,0,0,0,0,0,0,0,0,0,0,0,0,0,0,0,0,0,0,0,0,0,0,0,0,0,0,0,0,0,0,0,0,0,0,0,0,0,0,0,0,0,0,0,0,0,0,0,0,0,0,0,0,0,0,0,0,0,-1.6382,-1.6386,0,-1.6841,-1.6846,-1.6851,-1.7092,-1.7093,-1.7093,-1.7093,-1.7567,-1.7578,-1.7591,0,0,0,0,0,0,0,0,0,0,0,0,0,-1.5716,-1.5727,-1.6381,-1.6387,-1.6393,-1.684,-1.6846,-1.6853,-1.7092,-1.7093,-1.7093,-1.7093,-1.7563,-1.7577,-1.7592,0,0,0,0,0,0,0,0,0,0,0,0,0,-1.6073,-1.573,-1.638,-1.6566,-1.6587,-1.6839,-1.6846,-1.6854,-1.7092,-1.7093,-1.7093,-1.7094,-1.7558,-1.7576,-1.7594,-1.7696,0,0,-1.765,-1.7658,0,0,0,0,0,0,0,0,-1.6052,-1.6097,-1.6533,-1.6554,-1.6578,-1.691,-1.6786,-1.7137,-1.7092,-1.69,-1.7093,-1.7094,-1.7348,-1.7383,-1.7469,-1.7718,-1.7739,-1.7652,-1.7663,-1.7671,-1.7676,0,0,0,0,0,0,0,-1.6027,-1.6078,-1.6563,-1.6539,-1.6567,-1.6628,-1.6679,-1.6853,-1.7115,-1.6917,-1.6936,-1.6987,-1.736,-1.745,-1.7481,-1.7746,-1.7651,-1.7667,-1.7679,-1.7686,-1.8106,-1.8106,0,0,0,0,0,0,-1.5972,-1.6056,-1.6549,-1.6577,-1.6311,-1.6639,-1.6697,-1.6803,-1.7114,-1.7162,-1.6986,-1.6996,-1.7418,-1.746,-1.7499,-1.7642,-1.767,-1.7688,-1.7698,-1.8106,-1.8106,-1.8106,0,0,0,0,0,0,-1.5957,-1.6013,-1.653,-1.6322,-1.6392,-1.665,-1.6767,-1.6811,-1.6902,-1.7166,-1.7214,-1.7029,-1.7421,-1.7473,-1.7646,-1.7661,-1.7696,-1.7713,-1.8106,-1.8106,-1.8106,-1.7925,0,0,0,0,0,0,-1.5936,-1.6007,-1.6047,-1.6321,-1.6402,-1.6667,-1.6768,-1.682,-1.6932,-1.695,-1.722,-1.7265,-1.7425,-1.7617,-1.7664,-1.7687,-1.7727,-1.8105,-1.8106,-1.8106,-1.7931,-1.7919,-1.7909,0,0,0,0,0,-1.5912,-1.5978,-1.6048,-1.6106,-1.6458,-1.6668,-1.6714,-1.6897,-1.6932,-1.6976,-1.7147,-1.7256,-1.7651,-1.7633,-1.7688,-1.7716,-1.8105,-1.8106,-1.8106,-1.7936,-1.7921,-1.7909,0,0,0,0,0,0,-1.57,-1.6017,-1.6098,-1.6254,-1.6432,-1.6708,-1.6768,-1.6875,-1.7047,-1.7057,-1.7277,-1.7336,-1.7488,-1.762,-1.7593,-1.7834,-1.789,-1.7901,-1.7742,-1.773,-1.7719,-1.7685,-1.7742,0,0,0,0,0,-1.567,-1.5813,-1.6083,-1.6195,-1.628,-1.6508,-1.6606,-1.6731,-1.6925,-1.7001,-1.7184,-1.7368,-1.7535,-1.764,-1.7808,-1.7951,-1.8015,-1.7998,-1.7987,-1.7977,-1.7984,-1.8073,-1.8069,-1.8107,-1.8107,-1.8107,0,0,-1.5613,-1.5804,-1.5881,-1.6157,-1.631,-1.6454,-1.657,-1.6717,-1.6827,-1.7024,-1.7199,-1.7339,-1.756,-1.7718,-1.7798,-1.7833,-1.7988,-1.7977,-1.7967,-1.7981,-1.8072,-1.8069,-1.8065,-1.8107,-1.8107,-1.8107,0,0,-1.5582,-1.5739,-1.5851,-1.6001,-1.6231,-1.6382,-1.6408,-1.6669,-1.677,-1.6948,-1.71,-1.7234,-1.7515,-1.7667,-1.7781,-1.7808,-1.7916,-1.7856,-1.7799,-1.7883,-1.788,-1.7878,-1.789,-1.7891,-1.7863,-1.7862,-1.7862,0,-1.5481,-1.5703,-1.5895,-1.6034,-1.6152,-1.6337,-1.6453,-1.659,-1.6861,-1.694,-1.6975,-1.7333,-1.7495,-1.7693,-1.7699,-1.7785,-1.7824,-1.7827,-1.7864,-1.7865,-1.7866,-1.788,-1.7883,-1.7854,-1.7855,-1.7855,-1.7856,0,-1.5569,-1.5721,-1.5784,-1.6041,-1.6167,-1.6292,-1.6505,-1.6609,-1.6723,-1.6871,-1.7052,-1.7252,-1.7464,-1.7521,-1.7634,-1.7736,-1.7751,-1.7822,-1.7884,-1.7851,-1.7867,-1.7874,-1.7841,-1.7844,-1.7847,-1.7849,0,0,-1.5417,-1.5779,-1.5799,-1.5919,-1.6186,-1.6308,-1.6443,-1.665,-1.6736,-1.6918,-1.7039,-1.7273,-1.7341,-1.747,-1.7602,-1.7675,-1.7686,-1.7739,-1.7748,-1.7723,-1.7814,-1.7759,-1.7761,-1.7759,-1.7761,-1.7762,-1.7796,0,-1.5424,-1.5675,-1.5852,-1.6035,-1.6179,-1.6357,-1.6476,-1.6653,-1.6795,-1.6939,-1.7097,-1.726,-1.7337,-1.7417,-1.7497,-1.7667,-1.7707,-1.7667,-1.7876,-1.7881,-1.7815,-1.777,-1.7713,-1.7734,-1.7803,-1.7804,-1.7805,0,-1.5467,-1.5642,-1.5838,-1.6092,-1.6159,-1.6262,-1.6467,-1.6601,-1.6807,-1.6906,-1.7049,-1.7185,-1.7338,-1.7385,-1.76,-1.7569,-1.7665,-1.7762,-1.7767,-1.7795,-1.7841,-1.7797,-1.7745,-1.7748,-1.7817,-1.7816,-1.7815,0,-1.5337,-1.5623,-1.5778,-1.5875,-1.6174,-1.6242,-1.637,-1.6577,-1.669,-1.687,-1.6946,-1.714,-1.7247,-1.7396,-1.7582,-1.7598,-1.7779,-1.784,-1.7867,-1.7862,-1.7898,-1.7893,-1.7861,-1.7956,-1.7956,-1.7956,-1.7956,0,-1.5328,-1.5441,-1.5724,-1.5819,-1.5953,-1.6156,-1.6283,-1.6426,-1.6608,-1.6736,-1.6903,-1.7019,-1.7257,-1.7403,-1.7549,-1.7707,-1.7753,-1.7839,-1.7877,-1.7825,-1.7814,-1.7892,-1.7895,-1.7957,-1.7957,-1.7957,-1.7957,0,-1.5206,-1.54,-1.5581,-1.5849,-1.5919,-1.6005,-1.6236,-1.6337,-1.6488,-1.6648,-1.6697,-1.6935,-1.7117,-1.7316,-1.7564,-1.7663,-1.7812,-1.7865,-1.7741,-1.7763,-1.7779,-1.7775,-1.7797,-1.7811,-1.7893,-1.7892,-1.7891,0,-1.5188,-1.5279,-1.5557,-1.5654,-1.5777,-1.5931,-1.6049,-1.6253,-1.6368,-1.661,-1.6682,-1.6875,-1.7041,-1.7322,-1.7518,-1.7709,-1.777,-1.7764,-1.78,-1.7745,-1.7772,-1.7765,-1.7776,-1.7754,-1.7752,-1.775,-1.7749,0,-1.5135,-1.5227,-1.5388,-1.5583,-1.5718,-1.5881,-1.6052,-1.6122,-1.6361,-1.6483,-1.6669,-1.6797,-1.7051,-1.7241,-1.7457,-1.7592,-1.7711,-1.7736,-1.7753,-1.7701,-1.7627,-1.7669,-1.7714,-1.7735,-1.7736,-1.7737,-1.7738,-1.7739,-1.5067,-1.5157,-1.5367,-1.5542,-1.5691,-1.5847,-1.5955,-1.612,-1.6279,-1.65,-1.6612,-1.6797,-1.7004,-1.7305,-1.7436,-1.7587,-1.7624,-1.7647,-1.7654,-1.7657,-1.7644,-1.7601,-1.7626,-1.7627,-1.7628,-1.7628,-1.7629,0,-1.5024,-1.5168,-1.5326,-1.556,-1.5698,-1.5796,-1.5991,-1.61,-1.6261,-1.6443,-1.6602,-1.6818,-1.7004,-1.7215,-1.7415,-1.7495,-1.7555,-1.7541,-1.7538,-1.7567,-1.7598,-1.7564,-1.7489,-1.7489,-1.7489,-1.7489,-1.7489,-1.7489,-1.5018,-1.5177,-1.5293,-1.5529,-1.5673,-1.5856,-1.5958,-1.6104,-1.625,-1.6483,-1.6638,-1.6774,-1.6969,-1.7185,-1.7361,-1.7418,-1.7485,-1.7455,-1.7528,-1.7553,-1.7565,-1.7576,-1.7545,-1.7467,-1.7467,-1.7486,-1.7486,-1.7486]},{"header":{"parameterUnit":"m.s-1","parameterCategory":1,"la1":30.2991,"la2":30.254,"lo1":-89.0895,"lo2":-89.0444,"dy":0.0017,"dx":0.0017,"nx":28,"ny":28,"refTime":"2024-02-29T09:00:00:Z","depth":0,"parameterNumber":3,"parameterNumberName":"V-component_of_WINDS"},"data":[0,0,0,0,0,0,0,0,0,0,0,0,0,0,0,0,0,0,0,0,0,0,0,0,0,0,0,0,0,0,0,0,0,0,0,0,0,0,0,0,0,0,0,0,0,0,0,0,0,0,0,0,0,0,0,0,0,0,6.8616,6.8618,0,6.881,6.8812,6.8814,6.8825,6.8823,6.8821,6.8819,6.9009,6.9016,6.9023,0,0,0,0,0,0,0,0,0,0,0,0,0,6.8248,6.8255,6.8616,6.8619,6.8621,6.8809,6.8812,6.8815,6.8825,6.8823,6.882,6.8818,6.9007,6.9015,6.9024,0,0,0,0,0,0,0,0,0,0,0,0,0,6.8421,6.8257,6.8616,6.8649,6.8654,6.8809,6.8812,6.8815,6.8826,6.8823,6.8819,6.8816,6.9004,6.9015,6.9025,6.9157,0,0,6.9058,6.9063,0,0,0,0,0,0,0,0,6.8412,6.8435,6.8642,6.8647,6.8653,6.879,6.8752,6.893,6.8827,6.8761,6.8819,6.8815,6.8939,6.8954,6.8998,6.9166,6.9174,6.9059,6.9065,6.907,6.9073,0,0,0,0,0,0,0,6.84,6.8427,6.8692,6.8645,6.8652,6.8652,6.8673,6.8786,6.8865,6.8766,6.8767,6.8791,6.8941,6.8987,6.9002,6.9177,6.9059,6.9068,6.9075,6.9079,6.9463,6.9467,0,0,0,0,0,0,6.8382,6.8417,6.8686,6.8698,6.8522,6.8662,6.8685,6.8749,6.8864,6.8879,6.8793,6.879,6.8971,6.899,6.9009,6.9171,6.907,6.908,6.9086,6.9459,6.9464,6.9468,0,0,0,0,0,0,6.8374,6.8406,6.8679,6.8558,6.8593,6.8671,6.8744,6.8755,6.8801,6.8885,6.8898,6.8827,6.8969,6.8994,6.9121,6.9178,6.9085,6.9094,6.9455,6.9461,6.9466,6.9495,0,0,0,0,0,0,6.8364,6.8403,6.8456,6.8559,6.8599,6.8789,6.8747,6.8761,6.8821,6.8819,6.892,6.8933,6.8968,6.9105,6.9131,6.9191,6.9103,6.945,6.9457,6.9464,6.949,6.9501,6.9512,0,0,0,0,0,6.835,6.8455,6.8459,6.8491,6.8667,6.8792,6.8815,6.8855,6.8825,6.8878,6.8931,6.893,6.9167,6.9118,6.9148,6.9211,6.9446,6.9455,6.9464,6.9485,6.9499,6.9511,0,0,0,0,0,0,6.8353,6.8469,6.8474,6.8616,6.8695,6.8794,6.8861,6.8869,6.8956,6.895,6.8994,6.9017,6.9142,6.9189,6.9132,6.9345,6.9303,6.9318,6.9309,6.9323,6.9334,6.9319,6.9112,0,0,0,0,0,6.8371,6.8466,6.8561,6.8676,6.8716,6.8782,6.8838,6.8863,6.8945,6.8977,6.904,6.9118,6.921,6.9269,6.9359,6.9497,6.9518,6.9555,6.9566,6.9575,6.9586,6.9662,6.9679,6.9496,6.9496,6.9496,0,0,6.8407,6.8482,6.8539,6.8679,6.8743,6.8837,6.881,6.8911,6.8981,6.8992,6.9116,6.9165,6.9254,6.9387,6.9449,6.943,6.9642,6.9586,6.9592,6.9599,6.9673,6.969,6.9705,6.9502,6.9501,6.95,0,0,6.8522,6.8589,6.8693,6.8758,6.8856,6.8899,6.8924,6.9023,6.9057,6.9183,6.9193,6.9275,6.9433,6.9497,6.955,6.9689,6.9691,6.9717,6.9773,6.9846,6.986,6.9873,6.9922,6.9939,6.9729,6.9729,6.9729,0,6.8554,6.87,6.8744,6.8846,6.8906,6.8924,6.9027,6.9088,6.9209,6.9249,6.9227,6.9426,6.9488,6.9635,6.967,6.9712,6.974,6.9705,6.9855,6.9869,6.9881,6.9928,6.9946,6.9731,6.9731,6.9731,6.973,0,6.8733,6.8834,6.8905,6.9025,6.9094,6.9196,6.9253,6.9317,6.9336,6.9381,6.9508,6.9583,6.9687,6.9724,6.9743,6.9875,6.986,6.9847,6.9806,6.9901,6.9945,6.9964,6.9735,6.9734,6.9733,6.9733,0,0,6.8853,6.8998,6.9023,6.9077,6.9187,6.9265,6.9367,6.9472,6.9525,6.9608,6.9693,6.9827,6.9816,6.9876,6.9901,6.9966,7.007,6.9944,6.9947,6.9964,7.0219,7.0227,7.0247,7.0073,7.0076,7.0079,7.0211,0,6.8979,6.9164,6.9208,6.9365,6.9458,6.9476,6.9565,6.9641,6.9686,6.9769,6.9818,6.9912,6.989,6.9926,6.9991,7.0044,7.0122,7.0035,7.015,7.0154,7.0126,7.0271,7.028,7.0401,7.0228,7.0232,7.0234,0,6.915,6.924,6.9408,6.9506,6.9546,6.9626,6.9725,6.9806,6.9891,6.9919,6.9987,7.0006,7.0111,7.0067,7.0211,7.0151,7.02,7.0234,7.0239,7.025,7.0198,7.0284,7.044,7.0458,7.0262,7.0259,7.0257,0,6.9219,6.9382,6.9503,6.9549,6.9667,6.9722,6.9773,6.9856,6.9917,7.0003,7.0042,7.0139,7.0191,7.0264,7.0308,7.0272,7.0448,7.0407,7.0473,7.0471,7.0507,7.0504,7.0672,7.0542,7.0542,7.0541,7.0541,0,6.9354,6.9455,6.9536,6.961,6.9724,6.9772,6.9883,6.9934,7.0007,7.009,7.0111,7.0188,7.0243,7.0326,7.0361,7.0475,7.0498,7.0522,7.053,7.052,7.0516,7.0551,7.0544,7.0546,7.0545,7.0544,7.0543,0,6.9449,6.9508,6.9641,6.9743,6.9771,6.985,6.9936,7.0007,7.0053,7.0158,7.0185,7.0257,7.0357,7.0409,7.0532,7.0556,7.0683,7.0686,7.0655,7.0658,7.0719,7.0712,7.0914,7.0943,7.0795,7.0796,7.0797,0,6.9531,6.961,6.9721,6.9779,6.9832,6.9926,6.9988,7.0038,7.0102,7.0206,7.0265,7.0367,7.045,7.0609,7.067,7.0765,7.077,7.0834,7.0784,7.0771,7.0769,7.0764,7.0771,7.0842,7.0844,7.0845,7.0846,0,6.9669,6.9694,6.9785,6.9886,6.996,7.0042,7.0122,7.0168,7.023,7.03,7.0404,7.047,7.0598,7.0698,7.0797,7.0847,7.0857,7.0862,7.0882,7.0871,7.0849,7.086,7.0677,7.0856,7.0855,7.0854,7.0854,7.0853,6.9759,6.983,6.9919,7.0019,7.0085,7.016,7.0233,7.0289,7.0377,7.0487,7.0511,7.062,7.0703,7.0839,7.0892,7.0977,7.0963,7.0992,7.0999,7.1005,7.1007,7.0837,7.0995,7.0995,7.0995,7.0994,7.0994,0,6.9896,6.9955,7.0047,7.016,7.0238,7.0244,7.0333,7.0397,7.0494,7.0572,7.0655,7.0774,7.0871,7.0941,7.104,7.1094,7.1101,7.1118,7.1114,7.1125,7.1014,7.0987,7.1111,7.1111,7.1111,7.1111,7.1111,7.1111,6.9977,7.0097,7.0133,7.0286,7.0344,7.0453,7.0503,7.0572,7.0634,7.0767,7.0849,7.0895,7.097,7.1074,7.1163,7.1181,7.1215,7.1232,7.125,7.1145,7.1133,7.1121,7.1095,7.124,7.124,7.1353,7.1354,7.1355]}]]